When you browse on this site, cookies collect data to enhance your experience and personalize the content and advertising you see.
Visit our Privacy Policy to learn more. By continuing to use the site, you agree to this use of cookies and data.
  • In United Kingdom
  • List of Countries
  • For 7 days
  • Water Temperature
  • Satellite Maps
  • Weather Map
  • Weather Widgets
  • user-avatar
    Login

    Hourly Weather Tamazulapan del Progreso

    Today, 21 January, Monday

    Time Temperature Precipitation Wind Pressure Humidity
    00:00 +7°C° 0 mm 3 mps 598 mmHg 84%
    01:00 +7°C° 0 mm 3 mps 598 mmHg 84%
    02:00 +5°C° 0 mm 3 mps 597 mmHg 83%
    03:00 +5°C° 0 mm 3 mps 597 mmHg 82%
    04:00 +6°C° 0 mm 2 mps 597 mmHg 80%
    05:00 +5°C° 0 mm 2 mps 597 mmHg 78%
    06:00 +7°C° 0 mm 2 mps 598 mmHg 67%
    07:00 +9°C° 0 mm 2 mps 599 mmHg 57%
    08:00 +12°C° 0 mm 2 mps 600 mmHg 47%
    09:00 +15°C° 0 mm 2 mps 601 mmHg 39%
    10:00 +17°C° 0 mm 2 mps 601 mmHg 31%
    11:00 +20°C° 0 mm 2 mps 602 mmHg 23%
    12:00 +22°C° 0 mm 1 mps 602 mmHg 22%
    13:00 +22°C° 0 mm 1 mps 601 mmHg 20%
    14:00 +23°C° 0 mm 1 mps 601 mmHg 19%
    15:00 +22°C° 0 mm 1 mps 600 mmHg 25%
    16:00 +20°C° 0 mm 1 mps 600 mmHg 31%
    17:00 +19°C° 0 mm 1 mps 599 mmHg 37%
    18:00 +16°C° 0 mm 1 mps 599 mmHg 43%
    19:00 +14°C° 0 mm 1 mps 599 mmHg 50%
    20:00 +12°C° 0 mm 1 mps 598 mmHg 56%
    21:00 +12°C° 0 mm 1 mps 598 mmHg 58%
    22:00 +12°C° 0 mm 1 mps 598 mmHg 59%
    23:00 +11°C° 0 mm 1 mps 598 mmHg 61%

    Tomorrow, 22 January, Tuesday

    Time Temperature Precipitation Wind Pressure Humidity
    00:00 +11°C° 0 mm 1 mps 598 mmHg 59%
    01:00 +11°C° 0 mm 1 mps 597 mmHg 58%
    02:00 +10°C° 0 mm 1 mps 597 mmHg 56%
    03:00 +10°C° 0 mm 1 mps 597 mmHg 57%
    04:00 +10°C° 0 mm 1 mps 596 mmHg 57%
    05:00 +10°C° 0 mm 1 mps 596 mmHg 58%
    06:00 +12°C° 0 mm 1 mps 597 mmHg 53%
    07:00 +14°C° 0 mm 1 mps 599 mmHg 47%
    08:00 +16°C° 0 mm 1 mps 600 mmHg 42%
    09:00 +18°C° 0 mm 1 mps 600 mmHg 38%
    10:00 +19°C° 0 mm 2 mps 601 mmHg 34%
    11:00 +21°C° 0 mm 3 mps 601 mmHg 30%
    12:00 +21°C° 0 mm 3 mps 601 mmHg 30%
    13:00 +22°C° 0 mm 3 mps 600 mmHg 30%
    14:00 +22°C° 0 mm 4 mps 600 mmHg 30%
    15:00 +21°C° 0 mm 3 mps 599 mmHg 35%
    16:00 +20°C° 0 mm 3 mps 599 mmHg 40%
    17:00 +19°C° 0 mm 2 mps 599 mmHg 45%
    18:00 +17°C° 0 mm 2 mps 599 mmHg 48%
    19:00 +16°C° 0 mm 2 mps 599 mmHg 52%
    20:00 +14°C° 0 mm 1 mps 599 mmHg 56%
    21:00 +14°C° 0 mm 1 mps 598 mmHg 57%
    22:00 +13°C° 0 mm 1 mps 598 mmHg 59%
    23:00 +13°C° 0 mm 1 mps 598 mmHg 60%

    Day after tomorrow, 23 January, Wednesday

    Time Temperature Precipitation Wind Pressure Humidity
    00:00 +12°C° 0 mm 1 mps 598 mmHg 61%
    01:00 +12°C° 0 mm 1 mps 597 mmHg 62%
    02:00 +12°C° 0 mm 1 mps 597 mmHg 64%
    03:00 +11°C° 0 mm 1 mps 596 mmHg 65%
    04:00 +11°C° 0 mm 1 mps 596 mmHg 67%
    05:00 +11°C° 0 mm 1 mps 596 mmHg 69%
    06:00 +13°C° 0 mm 1 mps 597 mmHg 62%
    07:00 +14°C° 0 mm 1 mps 598 mmHg 56%
    08:00 +16°C° 0 mm 1 mps 599 mmHg 49%
    09:00 +19°C° 0 mm 1 mps 600 mmHg 43%
    10:00 +21°C° 0 mm 1 mps 600 mmHg 36%
    11:00 +23°C° 0 mm 2 mps 601 mmHg 29%
    12:00 +23°C° 0 mm 2 mps 600 mmHg 28%
    13:00 +24°C° 0 mm 2 mps 600 mmHg 26%
    14:00 +24°C° 0 mm 2 mps 600 mmHg 25%
    15:00 +23°C° 0 mm 2 mps 599 mmHg 31%
    16:00 +21°C° 0 mm 2 mps 599 mmHg 37%
    17:00 +20°C° 0 mm 2 mps 599 mmHg 43%
    18:00 +18°C° 0 mm 2 mps 599 mmHg 53%
    19:00 +16°C° 0 mm 2 mps 599 mmHg 63%
    20:00 +15°C° 0 mm 2 mps 599 mmHg 73%
    21:00 +14°C° 0 mm 2 mps 599 mmHg 76%
    22:00 +13°C° 0 mm 3 mps 599 mmHg 79%
    23:00 +13°C° 0 mm 3 mps 599 mmHg 83%

    24 January, Thursday

    Time Temperature Precipitation Wind Pressure Humidity
    00:00 +13°C° 0 mm 2 mps 599 mmHg 83%
    01:00 +13°C° 0 mm 2 mps 598 mmHg 84%
    02:00 +13°C° 0 mm 2 mps 598 mmHg 84%
    03:00 +12°C° 0 mm 2 mps 598 mmHg 86%
    04:00 +10°C° 0 mm 2 mps 597 mmHg 89%
    05:00 +10°C° 0 mm 2 mps 597 mmHg 91%
    06:00 +12°C° 0 mm 2 mps 598 mmHg 86%
    07:00 +12°C° 0 mm 2 mps 599 mmHg 80%
    08:00 +12°C° 0 mm 3 mps 600 mmHg 75%
    09:00 +15°C° 0 mm 2 mps 600 mmHg 66%
    10:00 +17°C° 0 mm 2 mps 601 mmHg 58%
    11:00 +20°C° 0 mm 1 mps 601 mmHg 49%
    12:00 +21°C° 0 mm 1 mps 601 mmHg 45%
    13:00 +21°C° 0 mm 2 mps 600 mmHg 41%
    14:00 +23°C° 0 mm 2 mps 600 mmHg 36%
    15:00 +21°C° 0 mm 2 mps 600 mmHg 40%
    16:00 +20°C° 0 mm 2 mps 599 mmHg 44%
    17:00 +19°C° 0 mm 2 mps 599 mmHg 48%
    18:00 +17°C° 0 mm 2 mps 599 mmHg 56%
    19:00 +15°C° 0 mm 2 mps 599 mmHg 63%
    20:00 +14°C° 0 mm 2 mps 599 mmHg 70%
    21:00 +13°C° 0 mm 2 mps 599 mmHg 72%
    22:00 +13°C° 0 mm 1 mps 598 mmHg 73%
    23:00 +13°C° 0 mm 1 mps 598 mmHg 74%

    25 January, Friday

    Time Temperature Precipitation Wind Pressure Humidity
    00:00 +12°C° 0 mm 1 mps 598 mmHg 74%
    01:00 +12°C° 0 mm 1 mps 597 mmHg 73%
    02:00 +12°C° 0 mm 1 mps 597 mmHg 73%
    03:00 +11°C° 0 mm 1 mps 597 mmHg 73%
    04:00 +11°C° 0 mm 1 mps 597 mmHg 73%
    05:00 +11°C° 0 mm 1 mps 597 mmHg 73%
    06:00 +13°C° 0 mm 1 mps 599 mmHg 68%
    07:00 +14°C° 0 mm 1 mps 600 mmHg 63%
    08:00 +16°C° 0 mm 2 mps 601 mmHg 58%
    09:00 +18°C° 0 mm 2 mps 601 mmHg 52%
    10:00 +19°C° 0 mm 2 mps 602 mmHg 46%
    11:00 +21°C° 0 mm 2 mps 602 mmHg 40%
    12:00 +21°C° 0 mm 3 mps 602 mmHg 40%
    13:00 +22°C° 0 mm 3 mps 602 mmHg 40%
    14:00 +22°C° 0 mm 3 mps 601 mmHg 40%
    15:00 +20°C° 0 mm 3 mps 601 mmHg 49%
    16:00 +18°C° 0 mm 4 mps 600 mmHg 59%
    17:00 +15°C° 0 mm 4 mps 600 mmHg 68%
    18:00 +13°C° 0 mm 4 mps 600 mmHg 72%
    19:00 +12°C° 0 mm 4 mps 600 mmHg 76%
    20:00 +11°C° 0 mm 4 mps 600 mmHg 80%
    21:00 +11°C° 0 mm 4 mps 600 mmHg 80%
    22:00 +10°C° 0 mm 4 mps 600 mmHg 80%
    23:00 +10°C° 0 mm 4 mps 600 mmHg 81%

    26 January, Saturday

    Time Temperature Precipitation Wind Pressure Humidity
    00:00 +10°C° 0 mm 4 mps 599 mmHg 81%
    01:00 +10°C° 0 mm 3 mps 599 mmHg 81%
    02:00 +10°C° 0 mm 3 mps 599 mmHg 81%
    03:00 +9°C° 0 mm 3 mps 598 mmHg 83%
    04:00 +9°C° 0 mm 3 mps 598 mmHg 84%
    05:00 +9°C° 0 mm 2 mps 598 mmHg 86%
    06:00 +10°C° 0 mm 2 mps 599 mmHg 81%
    07:00 +10°C° 0 mm 2 mps 599 mmHg 77%
    08:00 +12°C° 0 mm 2 mps 600 mmHg 72%
    09:00 +15°C° 0 mm 2 mps 600 mmHg 62%
    10:00 +18°C° 0 mm 1 mps 601 mmHg 51%
    11:00 +21°C° 0 mm 1 mps 601 mmHg 41%
    12:00 +21°C° 0 mm 2 mps 601 mmHg 37%
    13:00 +22°C° 0 mm 3 mps 601 mmHg 34%
    14:00 +23°C° 0 mm 4 mps 600 mmHg 31%
    15:00 +22°C° 0 mm 4 mps 600 mmHg 35%
    16:00 +20°C° 0 mm 3 mps 599 mmHg 40%
    17:00 +19°C° 0 mm 3 mps 599 mmHg 45%
    18:00 +18°C° 0 mm 2 mps 599 mmHg 51%
    19:00 +16°C° 0 mm 2 mps 599 mmHg 56%
    20:00 +15°C° 0 mm 1 mps 599 mmHg 62%
    21:00 +14°C° 0 mm 1 mps 598 mmHg 65%
    22:00 +14°C° 0 mm 1 mps 598 mmHg 67%
    23:00 +13°C° 0 mm 1 mps 598 mmHg 70%
    Show more